Simultaneous Nadir Overpasses (SNOs) Predictions

Prediction of SNOs between AQUA and GOES-15 Satellite Orbit:

Table of predicted SNOs for the next 14.0 days since TLE Epoch: 2/16/2013
Index Date Time (AQUA) AQUA Lat,Lon GOES-15 Lat,Lon Distance(km) Time Diff (sec)
1 02/17/2013 22:23:04 0.70,-131.96 0.05,-135.15 362.50 80
2 02/18/2013 10:44:24 0.37,-137.14 -0.04,-135.22 219.09 80
3 02/20/2013 10:32:42 -0.23,-134.30 -0.04,-135.28 110.71 80
4 02/20/2013 22:54:15 -0.88,-139.53 0.03,-135.24 487.46 80
5 02/22/2013 10:21:13 -0.81,-131.51 -0.03,-135.33 433.49 80
6 02/22/2013 22:42:50 -0.27,-136.76 0.02,-135.29 166.47 80
7 02/24/2013 22:31:38 0.27,-134.04 0.02,-135.34 147.54 80
8 02/25/2013 10:53:12 0.80,-139.27 -0.02,-135.40 440.53 80
9 02/26/2013 22:20:41 0.86,-131.38 0.02,-135.38 454.39 80
10 02/27/2013 10:42:18 0.25,-136.63 -0.02,-135.44 135.53 80
11 03/01/2013 10:31:39 -0.35,-134.05 -0.02,-135.47 162.31 80




NCC Satellite Simultaneous Nadir Overpasses (SNOs) Prediction Service
